CW6421 Weather Reports


Display with metric or nautical units.
time (UTC)temp
F
wind
direction
speed
MPH
gust
MPH
rain 1hr
in
rain 24hr
in
rain mn
in
humidity
%
barometer
mb
20260505183526 63 40 6.0 12.0 0.00 0.02 0.00 74 1007.5
20260505182527 63 40 9.0 13.0 0.01 0.02 0.00 73 1007.5
20260505181531 63 71 8.0 13.0 0.01 0.02 0.00 73 1007.5
20260505180527 64 74 9.0 13.0 0.01 0.02 0.00 72 1007.7
20260505175528 64 76 8.0 12.0 0.01 0.02 0.00 71 1007.7
20260505174529 65 70 6.0 12.0 0.01 0.02 0.00 71 1007.7
20260505173526 65 66 8.0 13.0 0.00 0.02 0.00 70 1007.7
20260505172529 65 69 6.0 14.0 0.00 0.01 0.00 70 1007.7
20260505171529 66 44 6.0 13.0 0.00 0.01 0.00 70 1007.7
20260505170527 66 54 7.0 10.0 0.00 0.01 0.00 69 1007.9
20260505164530 67 39 8.0 8.0 0.00 0.01 0.00 68 1007.9
20260505162526 67 33 10.0 12.0 0.00 0.01 0.00 68 1007.9
20260505161529 67 49 6.0 9.0 0.00 0.01 0.00 68 1007.9
20260505160527 68 44 4.0 10.0 0.00 0.01 0.00 67 1008.1
20260505152528 69 60 4.0 10.0 0.00 0.01 0.00 66 1008.1
20260505150527 69 61 6.0 11.0 0.00 0.01 0.00 66 1008.3
20260505140528 72 87 6.0 9.0 0.00 0.01 0.00 63 1008.7
20260505124530 68 160 3.0 8.0 0.00 0.01 0.00 69 1009.1
20260505123528 68 154 6.0 7.0 0.00 0.01 0.00 70 1009.1
20260505122527 67 147 5.0 7.0 0.00 0.01 0.00 71 1009.1
20260505121530 67 163 2.0 8.0 0.00 0.01 0.00 71 1009.1
20260505120528 67 157 4.0 6.0 0.00 0.01 0.00 71 1009.4
20260505115528 67 164 4.0 6.0 0.00 0.01 0.00 71 1009.4
20260505114529 66 156 2.0 5.0 0.00 0.01 0.00 72 1009.4
20260505113526 66 143 3.0 6.0 0.00 0.01 0.00 73 1009.4
20260505112527 65 140 3.0 6.0 0.00 0.01 0.00 73 1009.4
20260505111529 66 145 2.0 6.0 0.00 0.01 0.00 73 1009.4
20260505110529 65 150 2.0 8.0 0.00 0.01 0.00 74 1009.6
20260505101528 63 94 0.0 7.0 0.00 0.01 0.00 77 1009.6
20260505100528 63 48 1.0 8.0 0.00 0.01 0.00 77 1009.7
20260505095527 63 49 0.0 8.0 0.00 0.01 0.00 78 1009.7
20260505093528 62 97 1.0 8.0 0.00 0.01 0.00 78 1009.7
20260505092527 62 96 2.0 7.0 0.00 0.01 0.00 78 1009.7
20260505091531 62 35 2.0 7.0 0.00 0.01 0.00 78 1009.7
20260505090527 61 21 4.0 10.0 0.00 0.01 0.00 78 1010.0
20260505085527 61 40 3.0 10.0 0.00 0.01 0.00 78 1010.0
20260505084530 61 67 4.0 10.0 0.00 0.01 0.00 78 1010.0
20260505082527 61 55 5.0 11.0 0.00 0.01 0.00 78 1010.0
20260505081529 61 54 6.0 11.0 0.00 0.01 0.00 78 1010.0
20260505080528 60 57 6.0 12.0 0.00 0.01 0.00 78 1009.9
20260505074530 60 60 5.0 12.0 0.00 0.01 0.00 78 1009.9
20260505073526 60 73 7.0 12.0 0.00 0.01 0.00 77 1009.9
20260505071530 60 54 9.0 11.0 0.01 0.01 0.00 78 1009.9
20260505070527 60 68 9.0 10.0 0.01 0.01 0.00 78 1010.2
20260505065527 60 59 8.0 10.0 0.01 0.01 0.00 78 1010.2
20260505064530 59 47 8.0 9.0 0.01 0.01 0.00 78 1010.2
20260505063527 59 52 8.0 9.0 0.00 0.00 0.00 78 1010.2
20260505062527 59 55 7.0 10.0 0.00 0.00 0.00 78 1010.2
20260505061529 59 31 6.0 11.0 0.00 0.00 0.00 78 1010.2
20260505055527 58 30 7.0 10.0 0.00 0.00 0.00 78 1010.3
20260505054530 58 40 8.0 10.0 0.00 0.00 0.00 78 1010.3
20260505053527 58 21 6.0 11.0 0.00 0.00 0.00 78 1010.3
20260505051530 58 28 6.0 11.0 0.00 0.00 0.00 78 1010.3
20260505050528 58 25 5.0 7.0 0.00 0.00 0.00 78 1010.4
20260505041529 58 9 6.0 7.0 0.00 0.00 0.00 77 1010.4
20260505040527 59 5 6.0 7.0 0.00 0.00 0.00 76 1010.7
20260505035527 59 359 5.0 7.0 0.00 0.00 0.00 75 1010.7
20260505034529 59 4 4.0 7.0 0.00 0.00 0.00 75 1010.7
20260505033526 59 9 4.0 7.0 0.00 0.00 0.00 75 1010.7
20260505032528 59 13 3.0 9.0 0.00 0.00 0.00 74 1010.7
20260505031529 59 332 3.0 8.0 0.00 0.00 0.00 74 1010.7
20260505030527 60 95 3.0 9.0 0.00 0.00 0.00 74 1010.8
20260505025527 60 87 1.0 9.0 0.00 0.00 0.00 74 1010.8
20260505024529 60 86 4.0 9.0 0.00 0.00 0.00 74 1010.8
20260505023527 60 90 4.0 10.0 0.00 0.00 0.00 74 1010.8
20260505021527 60 86 6.0 9.0 0.00 0.00 0.00 74 1010.8
20260505020526 60 90 5.0 9.0 0.00 0.00 0.00 74 1011.1
20260505015527 60 83 6.0 10.0 0.00 0.00 0.00 74 1011.1
20260505014528 60 76 7.0 8.0 0.00 0.00 0.00 74 1011.1
20260505013527 60 69 6.0 10.0 0.00 0.00 0.00 74 1011.1
20260505012526 60 69 7.0 8.0 0.00 0.00 0.00 74 1011.1
20260505011529 60 67 6.0 10.0 0.00 0.00 0.00 73 1011.1
20260505005527 60 68 8.0 9.0 0.00 0.00 0.00 73 1011.8
20260505004529 60 54 6.0 8.0 0.00 0.00 0.00 73 1011.8
20260505003526 60 61 8.0 9.0 0.00 0.00 0.00 73 1011.8
20260505002527 60 93 6.0 9.0 0.00 0.00 0.00 73 1011.8
20260505001528 60 93 5.0 8.0 0.00 0.00 0.00 73 1011.8
20260505000527 60 81 6.0 12.0 0.00 0.00 0.00 72 1012.0
20260504235526 60 82 5.0 11.0 0.00 0.00 0.00 72 1012.0
20260504234535 60 80 5.0 10.0 0.00 0.00 0.00 72 1012.0
20260504233530 60 60 3.0 10.0 0.00 0.00 0.00 72 1012.0
20260504232526 61 64 5.0 12.0 0.00 0.00 0.00 71 1012.0
20260504231528 61 60 6.0 10.0 0.00 0.00 0.00 71 1012.0
20260504230528 61 62 6.0 12.0 0.00 0.00 0.00 70 1012.1
20260504225527 61 56 5.0 10.0 0.00 0.00 0.00 70 1012.1
20260504223529 62 54 7.0 12.0 0.00 0.00 0.00 70 1012.1
20260504222526 62 59 7.0 12.0 0.00 0.00 0.00 69 1012.1
20260504221530 62 55 8.0 10.0 0.00 0.00 0.00 69 1012.1
20260504220528 63 51 9.0 11.0 0.00 0.00 0.00 68 1012.3
20260504215527 63 41 9.0 11.0 0.00 0.00 0.00 68 1012.3
20260504214529 63 27 7.0 8.0 0.00 0.00 0.00 67 1012.3
20260504213527 64 38 7.0 9.0 0.00 0.00 0.00 67 1012.3
20260504212525 64 21 6.0 8.0 0.00 0.00 0.00 66 1012.3
20260504210527 64 34 3.0 7.0 0.00 0.00 0.00 65 1012.1
20260504205526 65 31 3.0 8.0 0.00 0.00 0.00 64 1012.1
20260504204532 65 32 5.0 8.0 0.00 0.00 0.00 64 1012.1
20260504203527 65 25 4.0 8.0 0.00 0.00 0.00 63 1012.1
20260504201528 65 45 4.0 8.0 0.00 0.00 0.00 63 1012.1
20260504195527 66 46 4.0 9.0 0.00 0.00 0.00 62 1011.9
20260504193528 66 21 5.0 9.0 0.00 0.00 0.00 61 1011.9
20260504191529 67 4 7.0 8.0 0.00 0.00 0.00 60 1011.9
20260504190528 67 8 8.0 10.0 0.00 0.00 0.00 60 1011.6
20260504185527 68 8 6.0 8.0 0.00 0.00 0.00 59 1011.6